Temp
14 14 13 13 12 12 11 10 10 10 10 9 9 8 8 7 7 7 6 5 5 5
14 14 13 12 12 11 11 10 10 9 9 9 7 8 7 6 7 6 6 5 5 4
13 13 11 11 11 10 9 10 9 9 8 7 7 7 7 7 7 6 5 5 5 4
13 12 11 10 9 9 10 9 8 9 7 7 7 6 7 7 6 6 5 5 5 4
12 10 10 9 10 10 10 8 9 8 8 7 7 7 6 6 6 5 4 5 4 4
9 8 8 8 8 8 8 8 8 8 7 7 6 6 6 5 5 5 5 5 4 4
9 8 7 8 7 7 7 8 8 7 6 6 6 5 4 3 4 4 5 5 4 4
8 8 7 7 7 7 8 8 8 7 6 5 4 4 4 3 3 4 4 4 5 4
7 7 7 7 7 7 7 7 6 5 5 4 3 4 3 3 3 4 4 3 3 4
7 7 7 7 7 6 6 5 4 4 3 2 3 4 2 3 3 3 3 3 3 2
6 6 5 5 4 4 4 4 3 2 2 3 3 2 1 2 3 2 2 2 2 2
4 4 4 3 3 3 3 2 2 2 3 2 2 2 2 2 2 1 2 2 2 1
3 3 3 3 3 3 3 3 3 3 2 2 1 2 2 2 1 1 1 2 2 2
4 3 3 3 3 3 2 2 1 1 2 1 1 2 2 2 1 1 0 -0 0 1
Height
818 821 825 830 833 834 835 840 844 849 852 855 857 856 863 856 859 860 861 863 864 866
811 816 819 823 828 831 833 838 843 846 848 849 851 854 856 856 857 858 859 861 862 863
805 809 814 818 822 826 830 834 838 843 846 847 849 852 850 853 854 855 856 858 859 859
800 804 808 811 816 820 825 828 833 837 841 845 846 846 850 850 851 851 852 854 856 855
796 800 803 805 808 812 814 822 830 832 835 836 840 844 847 848 848 848 848 848 849 850
794 798 802 804 807 809 814 820 826 831 833 837 838 842 844 843 844 844 845 845 844 844
791 794 798 801 803 805 810 817 824 830 836 838 839 841 841 841 841 839 840 839 839 838
788 791 794 797 801 805 811 815 821 824 828 834 834 836 835 837 837 835 834 832 831 830
787 790 793 798 802 807 813 815 820 820 822 826 831 833 833 833 831 829 826 823 822 821
787 791 794 798 803 807 811 816 818 821 824 826 827 828 828 828 826 822 819 816 815 814
789 792 796 800 804 808 813 816 818 820 823 824 824 823 822 822 819 815 812 809 808 807
794 797 800 804 807 810 814 817 819 820 820 819 818 818 817 816 812 808 804 802 799 799
801 803 805 808 810 813 815 816 817 816 815 814 813 813 811 809 806 801 797 794 792 791
806 808 809 810 811 812 812 812 813 813 811 810 809 806 804 803 800 796 791 789 787 785
Wind_Speed
37 35 32 32 35 37 35 32 30 25 22 19 10 11 15 13 11 9 10 9 8 8
37 36 35 35 37 37 34 32 29 26 23 16 16 17 15 10 9 9 9 9 10 11
35 37 35 35 37 35 33 30 30 26 21 15 19 16 14 9 10 11 11 12 11 11
35 33 33 34 34 34 32 33 31 27 20 20 18 13 9 8 11 14 14 15 14 12
29 28 31 31 35 34 35 36 32 28 24 23 16 12 8 8 14 17 17 17 16 15
19 19 20 22 28 29 34 33 29 24 22 19 14 10 11 9 16 20 21 20 19 18
16 16 16 19 22 28 32 32 27 21 16 14 9 6 8 14 19 22 23 25 24 22
13 13 14 18 24 27 27 27 25 24 20 14 5 8 16 17 19 21 24 27 29 27
7 9 14 17 18 18 21 22 21 21 20 14 10 16 17 20 20 23 24 24 24 28
6 8 10 12 13 16 19 17 17 14 8 7 14 20 18 20 25 23 22 22 22 20
7 8 10 12 15 17 18 13 10 9 11 16 21 20 20 23 27 25 26 25 23 21
14 16 18 19 19 15 10 8 11 13 17 21 25 21 22 25 23 23 24 23 24 22
17 17 16 12 10 5 4 7 13 20 22 22 19 22 25 22 20 23 22 23 23 23
12 9 6 3 1 5 7 9 11 14 17 19 22 26 24 23 24 23 22 19 19 22
Wind_Direction
222 223 220 216 213 209 205 207 201 197 193 187 213 183 212 195 201 210 204 209 222 236
224 227 227 226 222 218 216 213 205 195 189 194 232 203 208 203 211 224 220 228 238 248
227 230 228 229 225 219 218 210 199 195 199 243 198 206 202 208 228 233 230 230 241 248
228 230 227 225 222 224 221 211 203 199 222 201 199 195 206 220 241 230 225 228 244 245
231 230 229 225 229 225 217 211 204 205 200 193 192 201 210 264 255 237 228 232 235 242
228 223 224 226 227 221 212 204 203 203 192 194 189 193 231 270 258 247 242 243 241 246
230 228 225 226 217 215 205 202 197 194 194 183 166 218 275 260 257 255 251 253 254 252
231 228 216 207 209 205 202 198 196 191 184 179 194 278 297 263 269 270 264 264 263 260
224 220 213 210 207 207 201 197 193 180 175 194 222 290 279 281 282 281 275 269 264 260
221 203 208 209 201 196 192 177 159 167 189 219 252 289 284 279 292 287 283 276 267 255
152 145 148 149 155 150 141 148 179 197 231 255 274 279 280 282 288 287 284 279 271 254
114 117 120 119 124 139 154 183 213 237 258 271 283 285 285 294 295 288 284 281 273 257
106 108 107 113 130 159 217 254 268 275 272 280 278 285 295 295 293 291 285 284 275 262
86 89 93 116 272 293 299 297 293 290 289 288 290 295 293 293 292 290 289 277 269 258